[[{"header":{"parameterUnit":"m.s-1","parameterCategory":1,"la1":30.2992,"la2":30.254,"lo1":-89.0895,"lo2":-89.0443,"dy":0.0025,"dx":0.0025,"nx":19,"ny":19,"refTime":"2026-03-23T03:00:00:Z","depth":0,"parameterNumber":2,"parameterNumberName":"U-component_of_WINDS"},"data":[0,0,0,1.9116,1.9117,1.9184,1.9184,1.9282,1.9283,0,0,0,0,0,0,0,0,0,0,0,1.9099,1.91,1.9116,1.9117,1.9184,1.9184,1.9281,1.9283,0,0,0,0,0,0,0,0,0,0,0,1.9099,1.91,1.91,1.9118,1.9184,1.9184,1.9281,1.9228,0,0,0,0,0,0,0,0,0,0,1.9161,1.9147,1.9099,1.91,1.9118,1.9184,1.9184,1.9225,1.9231,1.9255,0,1.9274,0,1.928,1.9289,1.929,0,0,0,1.9116,1.9142,1.9157,1.9101,1.9119,1.9184,1.9154,1.9228,1.9235,1.9263,1.9275,1.9279,1.9281,1.929,1.9291,1.9429,1.943,0,0,1.9112,1.9113,1.9153,1.9162,1.9148,1.9151,1.9156,1.9232,1.9247,1.9276,1.9281,1.9283,1.9291,1.9292,1.9429,1.943,0,0,0,1.9103,1.9111,1.9124,1.9158,1.9169,1.9153,1.9158,1.9243,1.9247,1.9282,1.9284,1.9291,1.9293,1.9428,1.9429,1.9467,0,0,0,1.91,1.9105,1.9122,1.9124,1.9168,1.9206,1.9168,1.9242,1.925,1.9284,1.9291,1.9294,1.9427,1.9428,1.9464,1.9486,0,0,0,1.9094,1.9104,1.9114,1.9123,1.9152,1.9205,1.9213,1.9244,1.9252,1.929,1.9294,1.9426,1.9428,1.9461,1.9481,1.9526,0,0,0,1.9088,1.9146,1.9115,1.9181,1.9151,1.9225,1.9212,1.9268,1.9305,1.9292,1.9427,1.9429,1.9461,1.9479,1.9523,1.9566,1.9582,0,0,1.9162,1.9154,1.9194,1.9168,1.9248,1.9215,1.9303,1.9336,1.9339,1.94,1.9404,1.9465,1.9481,1.9525,1.9668,1.9681,0,0,0,1.9218,1.9247,1.9267,1.9302,1.9327,1.9354,1.9373,1.9387,1.9438,1.9369,1.9491,1.95,1.9526,1.9547,1.9558,1.9584,1.9437,1.9437,1.9437,1.9326,1.9327,1.9394,1.9404,1.9438,1.9459,1.9489,1.9511,1.9501,1.953,1.955,1.9636,1.966,1.9668,1.9694,1.9569,1.9569,1.9569,1.9569,1.9438,1.9482,1.9469,1.9529,1.9532,1.9584,1.9609,1.9602,1.9655,1.962,1.9643,1.961,1.9682,1.9706,1.9572,1.9571,1.9571,1.9571,1.9571,1.9513,1.9534,1.9548,1.96,1.9642,1.9651,1.9703,1.9702,1.9703,1.9726,1.975,1.9749,1.9753,1.9736,1.9736,1.9737,1.9737,1.9737,1.9737,1.9586,1.96,1.9642,1.9677,1.9701,1.9734,1.9758,1.9784,1.9813,1.981,1.981,1.9802,1.9687,1.9661,1.9742,1.9741,1.9741,1.974,1.974,1.9707,1.968,1.9745,1.9769,1.9813,1.9858,1.9856,1.9909,1.9931,1.9958,1.9945,1.9858,1.9852,1.9843,1.9822,1.994,1.994,1.994,1.994,1.9773,1.9769,1.9838,1.9878,1.9917,1.9924,2.0004,2.0026,2.0044,2.0059,2.0042,2.0012,2.0003,2.0003,1.999,1.9971,2.0124,2.0125,2.0125,1.9851,1.9851,1.9916,1.9931,1.9966,1.9998,2.0076,2.0127,2.0142,2.0132,2.0073,2.0065,2.0017,2.0,1.9991,1.9972,1.9936,0,0]},{"header":{"parameterUnit":"m.s-1","parameterCategory":1,"la1":30.2992,"la2":30.254,"lo1":-89.0895,"lo2":-89.0443,"dy":0.0025,"dx":0.0025,"nx":19,"ny":19,"refTime":"2026-03-23T03:00:00:Z","depth":0,"parameterNumber":3,"parameterNumberName":"V-component_of_WINDS"},"data":[0,0,0,0.4065,0.4069,0.4261,0.4262,0.4502,0.4504,0,0,0,0,0,0,0,0,0,0,0,0.4008,0.401,0.4065,0.407,0.4261,0.4262,0.4502,0.4504,0,0,0,0,0,0,0,0,0,0,0,0.4008,0.401,0.4012,0.407,0.4261,0.4262,0.4501,0.4358,0,0,0,0,0,0,0,0,0,0,0.4173,0.4121,0.4009,0.4012,0.4072,0.4261,0.4262,0.4351,0.4367,0.4414,0,0.4458,0,0.4485,0.452,0.4521,0,0,0,0.407,0.4108,0.4159,0.4012,0.4073,0.426,0.4175,0.436,0.4378,0.4435,0.4462,0.4471,0.4489,0.4522,0.4523,0.4796,0.4797,0,0,0.4059,0.4043,0.4147,0.4171,0.4143,0.4169,0.4181,0.4371,0.4398,0.4463,0.4476,0.4493,0.4524,0.4525,0.4795,0.4796,0,0,0,0.4029,0.4035,0.4082,0.4161,0.4196,0.4174,0.4188,0.439,0.4406,0.4479,0.4496,0.4525,0.4528,0.4794,0.4795,0.484,0,0,0,0.4022,0.4018,0.4078,0.407,0.4192,0.4296,0.4203,0.4393,0.4415,0.4495,0.4525,0.453,0.4792,0.4794,0.4836,0.4864,0,0,0,0.3996,0.4015,0.4042,0.4068,0.415,0.4293,0.4321,0.4398,0.4426,0.4521,0.4531,0.4791,0.4794,0.4832,0.4858,0.4928,0,0,0,0.3963,0.4082,0.4043,0.4182,0.4148,0.432,0.432,0.4449,0.4536,0.4526,0.4792,0.4795,0.4831,0.4854,0.4924,0.4982,0.5006,0,0,0.4104,0.4099,0.4182,0.4152,0.4326,0.4292,0.4472,0.4569,0.4593,0.4726,0.4733,0.4837,0.4858,0.4927,0.5146,0.5165,0,0,0,0.422,0.4279,0.4329,0.4411,0.4487,0.4552,0.4622,0.4657,0.477,0.4659,0.4883,0.4896,0.4937,0.4965,0.4981,0.5015,0.4808,0.4808,0.4808,0.4397,0.442,0.4556,0.4601,0.468,0.4748,0.4813,0.4871,0.4874,0.4926,0.4965,0.5096,0.5129,0.5141,0.5176,0.5,0.5,0.5,0.5,0.4603,0.4688,0.4684,0.4815,0.4837,0.4947,0.5015,0.5012,0.5115,0.507,0.5107,0.5053,0.516,0.5192,0.5004,0.5003,0.5003,0.5003,0.5002,0.472,0.4764,0.4803,0.4919,0.5006,0.5047,0.5144,0.5162,0.5179,0.5216,0.5256,0.5255,0.5254,0.5234,0.5235,0.5235,0.5235,0.5236,0.5236,0.4824,0.4866,0.4947,0.5033,0.5084,0.5154,0.522,0.5271,0.5331,0.5336,0.5336,0.533,0.5168,0.5124,0.5243,0.5242,0.5241,0.524,0.524,0.5021,0.4978,0.5103,0.5154,0.5253,0.5334,0.5354,0.5455,0.5499,0.5545,0.553,0.5408,0.5404,0.5392,0.5356,0.5528,0.5528,0.5528,0.5528,0.5117,0.5116,0.5244,0.5324,0.5404,0.5433,0.5568,0.5618,0.5663,0.569,0.5668,0.5623,0.561,0.5613,0.5596,0.5563,0.5783,0.5783,0.5784,0.5237,0.5244,0.5357,0.54,0.5477,0.5542,0.5668,0.5756,0.5799,0.5794,0.5711,0.57,0.5628,0.5604,0.5597,0.557,0.551,0,0]}]]